| time (UTC) | temp C | wind direction | speed KPH | gust KPH | rain 1hr cm | rain 24hr cm | rain mn cm | humidity % | barometer mb |
| 20260505200038 | 27 | 220 | 0.0 | 0.0 | 0.00 | 0.00 | 0.00 | 39 | 1014.2 |
| 20260505194550 | 27 | 136 | 0.0 | 0.0 | 0.00 | 0.00 | 0.00 | 40 | 1014.5 |
| 20260505193002 | 27 | 214 | 0.0 | 0.0 | 0.00 | 0.00 | 0.00 | 39 | 1014.7 |
| 20260505191518 | 27 | 132 | 0.0 | 3.2 | 0.00 | 0.00 | 0.00 | 39 | 1014.8 |
| 20260505190016 | 27 | 248 | 3.2 | 20.9 | 0.00 | 0.00 | 0.00 | 38 | 1015.0 |
| 20260505184533 | 28 | 297 | 0.0 | 8.0 | 0.00 | 0.00 | 0.00 | 39 | 1015.0 |
| 20260505183052 | 27 | 221 | 0.0 | 0.0 | 0.00 | 0.00 | 0.00 | 40 | 1015.0 |
| 20260505181509 | 27 | 161 | 0.0 | 8.0 | 0.00 | 0.00 | 0.00 | 37 | 1015.3 |
| 20260505180036 | 27 | 1 | 0.0 | 8.0 | 0.00 | 0.00 | 0.00 | 39 | 1015.3 |
| 20260505174557 | 27 | 245 | 0.0 | 17.7 | 0.00 | 0.00 | 0.00 | 38 | 1015.3 |
| 20260505173035 | 27 | 138 | 3.2 | 20.9 | 0.00 | 0.00 | 0.00 | 41 | 1015.4 |
| 20260505171601 | 27 | 318 | 0.0 | 0.0 | 0.00 | 0.00 | 0.00 | 41 | 1015.5 |
| 20260505170018 | 27 | 290 | 0.0 | 12.9 | 0.00 | 0.00 | 0.00 | 42 | 1015.9 |
| 20260505164538 | 27 | 312 | 0.0 | 0.0 | 0.00 | 0.00 | 0.00 | 44 | 1015.9 |
| 20260505163047 | 26 | 132 | 0.0 | 0.0 | 0.00 | 0.00 | 0.00 | 44 | 1016.1 |
| 20260505161502 | 26 | 98 | 0.0 | 12.9 | 0.00 | 0.00 | 0.00 | 47 | 1016.3 |
| 20260505153051 | 25 | 281 | 1.6 | 17.7 | 0.00 | 0.00 | 0.00 | 50 | 1016.4 |
| 20260505151605 | 25 | 318 | 0.0 | 0.0 | 0.00 | 0.00 | 0.00 | 51 | 1016.5 |
| 20260505130104 | 20 | 299 | 0.0 | 0.0 | 0.00 | 0.00 | 0.00 | 64 | 1016.9 |
| 20260505124514 | 20 | 99 | 0.0 | 0.0 | 0.00 | 0.00 | 0.00 | 64 | 1016.7 |
| 20260505123056 | 18 | 94 | 0.0 | 0.0 | 0.00 | 0.00 | 0.00 | 67 | 1016.7 |
| 20260505121501 | 18 | 289 | 0.0 | 0.0 | 0.00 | 0.00 | 0.00 | 68 | 1016.7 |
| 20260505120033 | 18 | 75 | 0.0 | 0.0 | 0.00 | 0.00 | 0.00 | 70 | 1016.6 |
| 20260505114558 | 17 | 120 | 0.0 | 0.0 | 0.00 | 0.00 | 0.00 | 72 | 1016.7 |
| 20260505113016 | 16 | 138 | 0.0 | 0.0 | 0.00 | 0.00 | 0.00 | 73 | 1016.5 |
| 20260505111533 | 16 | 172 | 0.0 | 0.0 | 0.00 | 0.00 | 0.00 | 76 | 1016.5 |
| 20260505101535 | 13 | 118 | 0.0 | 0.0 | 0.00 | 0.00 | 0.00 | 80 | 1015.8 |
| 20260505100056 | 14 | 166 | 0.0 | 0.0 | 0.00 | 0.00 | 0.00 | 80 | 1015.6 |
| 20260505094519 | 14 | 194 | 0.0 | 0.0 | 0.00 | 0.00 | 0.00 | 78 | 1015.6 |
| 20260505093034 | 14 | 63 | 0.0 | 0.0 | 0.00 | 0.00 | 0.00 | 78 | 1015.4 |
| 20260505091616 | 15 | 221 | 0.0 | 0.0 | 0.00 | 0.00 | 0.00 | 77 | 1015.3 |
| 20260505090008 | 15 | 271 | 0.0 | 0.0 | 0.00 | 0.00 | 0.00 | 77 | 1015.3 |
| 20260505084536 | 15 | 252 | 0.0 | 0.0 | 0.00 | 0.00 | 0.00 | 77 | 1015.3 |
| 20260505083107 | 15 | 157 | 0.0 | 0.0 | 0.00 | 0.00 | 0.00 | 76 | 1015.3 |
| 20260505081508 | 15 | 167 | 0.0 | 0.0 | 0.00 | 0.00 | 0.00 | 75 | 1015.2 |
| 20260505080033 | 15 | 325 | 0.0 | 0.0 | 0.00 | 0.00 | 0.00 | 74 | 1015.0 |
| 20260505074536 | 15 | 285 | 0.0 | 0.0 | 0.00 | 0.00 | 0.00 | 74 | 1015.0 |
| 20260505073059 | 15 | 285 | 0.0 | 0.0 | 0.00 | 0.00 | 0.00 | 73 | 1014.8 |
| 20260505071511 | 16 | 262 | 0.0 | 0.0 | 0.00 | 0.00 | 0.00 | 73 | 1014.8 |
| 20260505070039 | 16 | 293 | 0.0 | 0.0 | 0.00 | 0.00 | 0.00 | 72 | 1014.7 |
| 20260505064543 | 16 | 224 | 0.0 | 0.0 | 0.00 | 0.00 | 0.00 | 71 | 1014.7 |
| 20260505063102 | 16 | 165 | 0.0 | 0.0 | 0.00 | 0.00 | 0.00 | 70 | 1014.8 |
| 20260505061525 | 16 | 327 | 0.0 | 0.0 | 0.00 | 0.00 | 0.00 | 69 | 1014.9 |
| 20260505060052 | 16 | 238 | 0.0 | 0.0 | 0.00 | 0.00 | 0.00 | 68 | 1014.9 |
| 20260505054545 | 17 | 273 | 0.0 | 0.0 | 0.00 | 0.00 | 0.00 | 67 | 1015.0 |
| 20260505053009 | 17 | 261 | 0.0 | 0.0 | 0.00 | 0.00 | 0.00 | 66 | 1015.1 |
| 20260505051526 | 17 | 285 | 0.0 | 0.0 | 0.00 | 0.00 | 0.00 | 66 | 1015.1 |
| 20260505041507 | 17 | 293 | 0.0 | 0.0 | 0.00 | 0.00 | 0.00 | 66 | 1015.1 |
| 20260505040021 | 17 | 173 | 0.0 | 0.0 | 0.00 | 0.00 | 0.00 | 65 | 1015.0 |
| 20260505034549 | 17 | 299 | 0.0 | 0.0 | 0.00 | 0.00 | 0.00 | 65 | 1014.9 |
| 20260505033009 | 18 | 292 | 0.0 | 0.0 | 0.00 | 0.00 | 0.00 | 64 | 1014.9 |
| 20260505031526 | 18 | 293 | 0.0 | 0.0 | 0.00 | 0.00 | 0.00 | 64 | 1015.0 |
| 20260505030056 | 18 | 250 | 0.0 | 0.0 | 0.00 | 0.00 | 0.00 | 64 | 1014.9 |
| 20260505024601 | 18 | 291 | 0.0 | 0.0 | 0.00 | 0.00 | 0.00 | 64 | 1015.0 |
| 20260505023038 | 18 | 288 | 0.0 | 0.0 | 0.00 | 0.00 | 0.00 | 65 | 1014.7 |
| 20260505021503 | 18 | 272 | 0.0 | 0.0 | 0.00 | 0.00 | 0.00 | 65 | 1014.9 |
| 20260505020033 | 18 | 304 | 0.0 | 0.0 | 0.00 | 0.00 | 0.00 | 65 | 1014.9 |
| 20260505014559 | 18 | 275 | 0.0 | 0.0 | 0.00 | 0.00 | 0.00 | 65 | 1014.7 |
| 20260505013059 | 19 | 121 | 0.0 | 0.0 | 0.00 | 0.00 | 0.00 | 65 | 1014.7 |
| 20260505011512 | 19 | 276 | 0.0 | 1.6 | 0.00 | 0.00 | 0.00 | 65 | 1014.4 |
| 20260505010051 | 19 | 99 | 0.0 | 0.0 | 0.00 | 0.00 | 0.00 | 64 | 1014.1 |
| 20260505004553 | 20 | 312 | 0.0 | 1.6 | 0.00 | 0.00 | 0.00 | 63 | 1013.9 |
| 20260505003005 | 20 | 136 | 0.0 | 3.2 | 0.00 | 0.00 | 0.00 | 62 | 1013.7 |
| 20260505001524 | 20 | 260 | 0.0 | 0.0 | 0.00 | 0.00 | 0.00 | 61 | 1013.7 |
| 20260505000037 | 20 | 117 | 0.0 | 0.0 | 0.00 | 0.00 | 0.00 | 60 | 1013.5 |
| 20260504234506 | 21 | 245 | 0.0 | 6.4 | 0.00 | 0.00 | 0.00 | 58 | 1013.3 |
| 20260504233018 | 21 | 223 | 1.6 | 17.7 | 0.00 | 0.00 | 0.00 | 57 | 1013.1 |
| 20260504231554 | 22 | 181 | 0.0 | 8.0 | 0.00 | 0.00 | 0.00 | 55 | 1013.0 |
| 20260504230012 | 22 | 308 | 0.0 | 4.8 | 0.00 | 0.00 | 0.00 | 53 | 1013.0 |
| 20260504224517 | 23 | 221 | 0.0 | 1.6 | 0.00 | 0.00 | 0.00 | 48 | 1012.8 |
| 20260504223055 | 24 | 287 | 0.0 | 6.4 | 0.00 | 0.00 | 0.00 | 43 | 1012.6 |
| 20260504221558 | 25 | 198 | 0.0 | 0.0 | 0.00 | 0.00 | 0.00 | 37 | 1012.6 |
| 20260504220007 | 25 | 297 | 0.0 | 0.0 | 0.00 | 0.00 | 0.00 | 37 | 1012.6 |
| 20260504214526 | 25 | 331 | 0.0 | 1.6 | 0.00 | 0.00 | 0.00 | 35 | 1012.7 |
| 20260504213046 | 26 | 328 | 0.0 | 1.6 | 0.00 | 0.00 | 0.00 | 34 | 1012.8 |
| 20260504211653 | 25 | 310 | 0.0 | 9.7 | 0.00 | 0.00 | 0.00 | 35 | 1012.8 |
| 20260504204520 | 26 | 60 | 0.0 | 0.0 | 0.00 | 0.00 | 0.00 | 35 | 1012.9 |
| 20260504203043 | 26 | 134 | 0.0 | 0.0 | 0.00 | 0.00 | 0.00 | 36 | 1012.9 |
| 20260504201608 | 26 | 257 | 0.0 | 0.0 | 0.00 | 0.00 | 0.00 | 36 | 1013.1 |